Regional Weather Roundup
Issued by NWS

Home | Current Version | Previous Version | Text Only | Print | Product List | Glossary On
Versions: 1 2 3 4 5 6 7 8 9 10 11 12 13 14 15 16 17 18 19 20 21 22 23 24 25 26 27 28 29 30 31 32 33 34 35 36 37 38 39 40 41 42 43 44 45 46 47 48 49 50
000
ASUS43 KMPX 241710
RWRMN
WEATHER ROUNDUP FOR MINNESOTA
NATIONAL WEATHER SERVICE TWIN CITIES/CHANHASSEN MN
1100 AM CST SAT FEB 24 2018


NOTE: "FAIR" INDICATES FEW OR NO CLOUDS BELOW 12,000 FEET WITH NO
SIGNIFICANT WEATHER AND/OR OBSTRUCTIONS TO VISIBILITY. N/A MEANS
CURRENT SKY AND/OR WEATHER CONDITIONS ARE NOT AVAILABLE.

MNZ060>063-068>070-241800-
   Twin Cities Metro

CITY           SKY/WX    TMP DP  RH WIND       PRES   REMARKS
TWIN CITIES    PTSUNNY   21  20  96 CALM      30.08S FOG
ST PAUL        PTSUNNY   21  18  88 VRB3      30.10R FOG
CRYSTAL        CLOUDY    20  15  81 CALM      30.08R HAZE
BLAINE         CLOUDY    19  18  93 E6        30.07S FOG     WCI  11
LAKEVILLE      FAIR      14  14 100 CALM      30.05F FOG
EDEN PRAIRIE   CLOUDY    20  17  88 CALM      30.06S FOG
SOUTH ST PAUL  FAIR      20  19  95 CALM      30.08S FOG
LAKE ELMO      FAIR     N/A N/A N/A NE3       30.07F FOG
$$
MNZ001>005-007-008-013>017-022>024-027-028-241800-
   Northwest Minnesota

CITY           SKY/WX    TMP DP  RH WIND       PRES   REMARKS
BEMIDJI        FAIR      12   8  84 S6        30.02F WCI   3
HALLOCK        FAIR      10   7  85 S22       29.96F FOG     WCI  -9
ROSEAU         FAIR      16   7  67 S12       29.98F WCI   3
WARROAD        FAIR      18   9  68 S7        29.98F WCI   8
THIEF RVR FALL FAIR      12   6  77 S12       30.00F WCI  -2
CROOKSTON      FAIR       9   3  78 S16       30.01F WCI  -9
FOSSTON        FAIR      18   9  68 S12       29.99F WCI   5
DETROIT LAKES  FAIR      12  10  92 SE8       30.00F WCI   1
MOORHEAD       FAIR       9   5  85 S9        30.02F WCI  -5
PARK RAPIDS    FAIR      11   7  84 SE5       30.01F WCI   3
MAHNOMEN       FAIR      16  10  77 S8        29.99F WCI   5
$$
MNZ006-009>011-018-025>026-241800-
   North Central Minnesota

CITY           SKY/WX    TMP DP  RH WIND       PRES   REMARKS
BAUDETTE       FAIR      16   8  71 S7        29.99F WCI   6
FLAG ISLAND    FAIR       5   1  85 SE13      29.98F WCI -12
INTL FALLS     FAIR      19  10  68 SE5       30.02F WCI  12
WASKISH        CLOUDY    21  10  63 SE6       30.02F WCI  14
LONGVILLE      FAIR      14   7  73 SE9       30.06F WCI   2
GRAND RAPIDS   FAIR      15   7  70 S9        30.08F WCI   3
CRANE LAKE     FAIR      18  10  73 CALM      30.07F
ORR            FAIR      19   7  58 SE5       30.01F WCI  13
COOK             N/A     21  10  63 E5        30.04F WCI  15
WALKER         FAIR      12   5  73 SE7       30.04F WCI   1
$$
MNZ012-019>021-037-241800-
   Northeast Minnesota

CITY           SKY/WX    TMP DP  RH WIND       PRES   REMARKS
DULUTH         FAIR      20  12  71 S7        30.09S WCI  11
ELY            FAIR      19   9  63 CALM      30.05F
HIBBING        FAIR      15   7  70 SE7       30.06S WCI   5
EVELETH        FAIR      19   9  63 CALM      30.06F
DULUTH HARBOR  FAIR      18  12  79 N3        30.16F
TWO HARBORS    FAIR      28  16  59 SE9       30.11R WCI  20
SILVER BAY     FAIR      23  16  74 SE6       30.10S WCI  16
GRAND MARAIS     N/A     24  12  60 E3        30.15F
G MARAIS ARPRT FAIR      21   7  53 CALM      30.06F
$$
MNZ029>031-032-039>041-046>048-054>057-064-241800-
   West Central Minnesota

CITY           SKY/WX    TMP DP  RH WIND       PRES   REMARKS
FERGUS FALLS   FAIR      16   7  67 S12       30.02F WCI   3
WHEATON        FLURRIES   9   5  85 SE6       30.04F WCI  -1
MORRIS         CLOUDY    10   9  92 SE6       30.01F WCI   1
ALEXANDRIA     CLOUDY    15   8  73 E8        30.01F WCI   4
ELBOW LAKE     FAIR      14  11  90 E7        30.02S WCI   3
WADENA         FAIR      10   9  92 SE7       30.01F WCI   0
GLENWOOD       FAIR      16  12  86 E12       30.01F WCI   3
APPLETON       LGT SNOW   7   3  85 CALM      30.02F
BENSON         CLOUDY    12   9  85 SE6       30.03F WCI   3
ORTONVILLE     LGT SNOW   7   3  85 CALM      30.00F
MADISON        FLURRIES   9   3  78 CALM      30.02F
WILLMAR        FAIR      16  14  93 E8        30.03F WCI   5
$$
MNZ033>034-036-042>043-049>051-058-059-241800-
   Central Minnesota

CITY           SKY/WX    TMP DP  RH WIND       PRES   REMARKS
ST CLOUD       PTSUNNY   18  14  84 E5        30.05F WCI  11
SAUK CENTRE    FAIR      12  10  90 E6        30.03F WCI   3
PAYNESVILLE    CLOUDY    17  15  93 E5        30.04F WCI  10
AITKIN         FAIR      16   9  73 NE6       30.04F WCI   7
PINE RIVER     FAIR      10   7  85 E5        30.08F WCI   2
BRAINERD       FAIR      19   8  62 SE5       30.05F WCI  12
STAPLES        FAIR      12  10  92 E5        30.02F WCI   4
LONG PRAIRIE   FAIR      14  12  92 CALM      30.03F
LITTLE FALLS   CLOUDY    18   7  62 E3        30.06F
LITCHFIELD     PTSUNNY   18  18 100 E7        30.05F WCI   8
BUFFALO        PTSUNNY   19  15  86 E3        30.09S
MAPLE LAKE     CLOUDY    20  19  96 E5        30.07S FOG     WCI  14
HUTCHINSON     PTSUNNY   18  17  93 NE7       30.04F FOG     WCI   9
$$
MNZ037-044-045-052-053-241800-
   East Central Minnesota

CITY           SKY/WX    TMP DP  RH WIND       PRES   REMARKS
PRINCETON      FAIR      21  18  86 E5        30.06F WCI  15
CAMBRIDGE        N/A     18  12  79 E3        30.08F
RUSH CITY      PTSUNNY   18  16  93 CALM      30.09F
MOOSE LAKE     FAIR      19  10  68 NE3       30.08F
HINCKLEY       FAIR      21  21 100 CALM      30.09F
CLOQUET        FAIR      19   9  63 SE7       30.09F WCI  10
MCGREGOR       FAIR      21  12  68 CALM      30.08F
$$
MNZ071>073-080-081-089-090-097-098-241800-
   Southwest Minnesota

CITY           SKY/WX    TMP DP  RH WIND       PRES   REMARKS
MONTEVIDEO     CLOUDY    10   7  85 CALM      30.01F
GRANITE FALLS  CLOUDY    11   9  89 CALM      30.01F
CANBY          LGT SNOW  10   7  89 CALM      30.00F VSB 3/4
MARSHALL       LGT SNOW  12   9  85 NE5       29.98F FOG     WCI   4
REDWOOD FALLS  CLOUDY    14  12  92 NE5       30.01F FOG     WCI   6
OLIVIA         MOSUNNY   18  16  93 E6        30.01F WCI   9
PIPESTONE      LGT SNOW  18  16  93 CALM      29.91F
WORTHINGTON    LGT SNOW  21  19  92 NE5       29.91F FOG     WCI  15
JACKSON        CLOUDY    14  12  92 NE5       29.90F FOG     WCI   6
TRACY          CLOUDY    14  12  92 NE3       29.95F
SLAYTON        LGT SNOW  18  16  95 CALM      29.93F
$$
MNZ065>067-074>077-082>085-091>093-241800-
   South Central Minnesota

CITY           SKY/WX    TMP DP  RH WIND       PRES   REMARKS
MANKATO        PTSUNNY   22  18  85 NE7       30.00F FOG     WCI  13
NEW ULM        CLOUDY    12  10  92 CALM      30.00F FOG
ST JAMES       LGT SNOW  10   7  85 N6        29.98F WCI   1
FAIRMONT       PTSUNNY   18  14  84 N7        29.94F WCI   9
GLENCOE        CLOUDY    19  19 100 NE5       30.04F FOG     WCI  12
FARIBAULT      FAIR      19  19 100 NE8       30.02F FOG     WCI   9
OWATONNA       FAIR      23  19  86 E10G18    29.99F FOG     WCI  12
WASECA         CLOUDY    23  21  93 E9        30.00F FOG     WCI  13
ALBERT LEA     FAIR      25  23  93 E10       29.94F FOG     WCI  15
$$
MNZ078>079-086>088-094>096-241800-
   Southeast Minnesota

CITY           SKY/WX    TMP DP  RH WIND       PRES   REMARKS
ROCHESTER      FAIR      24  22  91 SE12      29.99F FOG     WCI  13
RED WING       PTSUNNY   21  18  86 S6        30.05F FOG     WCI  14
STANTON        CLOUDY    25  23  93 SE10G17   30.03F WCI  15
DODGE CENTER   FAIR      25  21  86 SE9       29.99F FOG     WCI  15
WINONA         FAIR      28  27  93 SE8       30.03F FOG     WCI  20
AUSTIN         PTSUNNY   25  23  93 SE12      29.98F FOG     WCI  14
PRESTON        PTSUNNY   28  23  83 SE15G22   29.98F WCI  16
$$
ABBREVIATIONS USED IN REMARKS
   TC - TEMPERATURES IN CELSIUS
  WCI - WIND CHILL INDEX
   HX - HEAT INDEX
  VSB - VISIBILITY
$$




USA.gov is the U.S. government's official web portal to all federal, state and local government web resources and services.